Location: Aiyekoto
(8.4333°N, 4.3667°E)
Time: 13:05:17
(UTC+00:00)

Tiros 1 despin weight - Visible Passes

Search period start: 26 September 2020 00:00
Search period end: 06 October 2020 00:00
Orbit: 593 x 642 km, 48.2° (Epoch: 26 September)

Date Brightness Start Highest point End Pass type
(mag) Time Alt. Az. Time Alt. Az. Time Alt. Az.
27 Sep ? 18:52:58 10° N 18:53:52 13° NNE 18:53:52 13° NNE visible
28 Sep ? 19:07:53 10° NNW 19:10:22 26° N 19:10:22 26° N visible
29 Sep ? 19:23:55 10° NW 19:27:03 42° NW 19:27:03 42° NW visible
30 Sep ? 17:59:56 10° N 18:03:31 22° NE 18:06:50 11° E visible
30 Sep ? 19:40:51 10° WNW 19:43:58 28° WSW 19:43:58 28° WSW visible
01 Oct ? 18:15:26 10° NNW 18:20:00 54° NE 18:23:58 13° SE visible
01 Oct ? 19:59:33 10° WSW 20:01:07 12° SW 20:01:07 12° SW visible
02 Oct ? 18:31:49 10° NW 18:36:23 55° SW 18:40:58 10° SSE visible
03 Oct ? 18:49:13 10° W 18:52:45 21° SW 18:56:17 10° S visible
